Weather observations for the past three days for
Mackinac Island Airport
Metric (Imperial)
Date Time (edt) Wind (kph) Vis. (km) Weather Sky Cond. Temperature (ºC) Relative Humidity Wind Chill (°C) Heat Index (°C) Pressure Precipitation (cm)
Air Dwpt 6 hour altimeter (cm) sea level (mb) 1 hr 3 hr 6 hr
Max. Min.
07 18:55 W 17 16.09 Overcast OVC070 5 -2 61% 2 75.77 0.0
07 18:35 W 17 G 26 16.09 Overcast BKN070 OVC090 5 -2 61% 2 75.77 0.0
07 18:15 W 17 G 30 16.09 Overcast FEW070 OVC090 6 -2 57% 3 75.77 0.0
07 17:55 W 20 G 31 16.09 Overcast SCT070 OVC090 6 -2 57% 3 75.77 0.0
07 17:35 W 15 G 30 16.09 Overcast OVC070 6 -2 57% 3 75.77 0.0
07 17:15 W 26 G 33 16.09 Overcast OVC070 6 -2 57% 2 75.77 0.0
07 16:56 W 19 G 35 16.09 Overcast OVC085 6 -2 57% 3 75.74 0.0
07 16:35 W 22 G 33 16.09 Overcast OVC085 6 -2 57% 2 75.74 0.0
07 16:15 W 20 G 37 16.09 Overcast OVC085 7 -2 53% 4 75.74 0.0
07 15:55 W 24 G 33 16.09 Overcast OVC075 7 -2 53% 4 75.74 0.0
07 15:35 SW 17 G 26 16.09 Overcast OVC075 7 -2 53% 4 75.77 0.0
07 15:15 SW 20 16.09 Overcast OVC075 7 -1 57% 4 75.77 0.0
07 14:55 SW 17 G 26 16.09 Overcast OVC075 7 -1 57% 4 75.77 0.0
07 14:36 SW 15 G 26 16.09 Overcast OVC075 7 -1 57% 5 75.77 0.0
07 14:15 SW 26 16.09 Overcast OVC075 7 -1 57% 3 75.79 0.0
07 13:55 Vrbl 11 16.09 Overcast OVC075 6 -1 6.4 2 61% 4 75.82 0.0
07 13:35 SW 19 16.09 Overcast OVC075 6 0 66% 3 75.82 0.0
07 13:15 SW 19 16.09 Overcast OVC075 6 1 71% 3 75.84 0.0
07 12:55 Vrbl 11 16.09 Overcast OVC065 5 0 70% 3 75.84 0.0
07 12:35 SW 20 16.09 Overcast OVC075 5 0 70% 1 75.87 0.0
07 12:16 SW 20 G 28 16.09 Overcast OVC075 5 0 70% 1 75.87 0.0
07 11:55 SW 22 16.09 Overcast FEW035 SCT050 OVC070 5 0 70% 1 75.9 0.0
07 11:35 W 13 16.09 Overcast FEW035 FEW043 OVC070 5 -1 66% 2 75.9 0.0
07 11:15 SW 20 16.09 Overcast OVC070 5 -1 66% 1 75.9 0.0
07 10:55 SW 17 16.09 Overcast SCT060 OVC070 5 -1 66% 2 75.87 0.0
07 10:36 Vrbl 11 16.09 Overcast OVC060 4 0 75% 2 75.9 0.0
07 10:16 Vrbl 11 16.09 Overcast BKN060 OVC070 4 -1 70% 2 75.9 0.0
07 09:55 SW 7 16.09 Overcast OVC070 4 -1 70% 2 75.9 0.0
07 09:35 SW 9 16.09 Overcast OVC070 4 0 75% 2 75.9 0.0
07 09:16 S 11 16.09 Overcast OVC070 3 0 81% 0 75.9 0.0
07 08:55 Vrbl 9 16.09 Overcast OVC070 3 -1 75% 1 75.9 0.0
07 08:35 S 11 16.09 Mostly Cloudy BKN070 3 0 81% 0 75.87 0.0
07 08:15 S 15 16.09 A Few Clouds FEW070 3 0 81% -0 75.87 0.0
07 07:55 S 11 16.09 Fair CLR 2 -1 2.1 -2 81% -1 75.87 0.0
07 07:36 S 13 16.09 Fair CLR 2 -1 81% -1 75.87 0.0
07 07:15 S 11 16.09 Fair CLR 1 -2 81% -2 75.84 0.0
07 06:55 S 9 16.09 Fair CLR -2 -4 86% -5 75.84 0.0
07 06:35 S 7 16.09 Fair CLR -2 -4 86% -4 75.84 0.0
07 06:15 SW 4 16.09 Fair CLR -2 -4 86% 75.84 0.0
07 05:55 W 4 16.09 Fair CLR -2 -4 86% 75.84 0.0
07 05:35 NW 4 16.09 Fair CLR -1 -3 86% 75.84 0.0
07 05:16 NW 4 16.09 A Few Clouds FEW090 -1 -3 86% 75.84 0.0
07 04:55 NW 4 16.09 Mostly Cloudy SCT046 BKN090 -1 -3 86% 75.87 0.0
07 04:35 W 6 16.09 Overcast OVC046 0 -3 80% 75.87 0.0
07 04:15 NW 6 16.09 Overcast OVC046 1 -3 75% 75.87 0.0
07 03:55 NW 7 16.09 Overcast OVC046 0 -3 80% -2 75.9 0.0
07 03:35 NW 9 16.09 Partly Cloudy SCT046 -1 -3 86% -4 75.9 0.0
07 03:15 NW 7 16.09 Mostly Cloudy BKN050 -1 -3 86% -3 75.9 0.0
07 02:56 NW 7 16.09 Mostly Cloudy BKN050 -1 -2 93% -3 75.92 0.0
07 02:35 NW 7 16.09 Mostly Cloudy SCT050 BKN120 -1 -2 93% -3 75.92 0.0
07 02:15 NW 6 16.09 A Few Clouds FEW050 0 -2 87% 75.92 0.0
07 01:55 NW 9 16.09 Fair CLR 0 -2 4 0.1 87% -3 75.95 0.0
07 01:35 NW 9 16.09 Fair CLR 1 -2 81% -2 75.95 0.0
07 01:15 N 7 16.09 Partly Cloudy FEW065 SCT100 2 -2 75% 0 75.95 0.0
07 00:55 NW 7 16.09 Mostly Cloudy BKN070 BKN100 2 -2 75% 0 75.95 0.0
07 00:36 NW 7 16.09 Mostly Cloudy BKN070 BKN100 2 -1 81% 0 75.97 0.0
07 00:15 NW 11 16.09 Mostly Cloudy BKN070 BKN100 2 -1 81% -1 75.95 0.0
06 23:55 NW 7 16.09 Overcast OVC060 3 -1 75% 1 75.95 0.0
06 23:35 NW 9 16.09 Overcast OVC060 3 -1 75% 1 75.97 0.0
06 23:15 W 11 16.09 Overcast OVC075 3 -1 75% 0 75.97 0.0
06 22:55 W 11 16.09 Overcast OVC075 3 -2 70% 0 75.97 0.0
06 22:35 W 13 16.09 Overcast OVC075 3 -2 70% 0 75.97 0.0
06 22:16 W 17 16.09 Overcast OVC075 3 -2 70% -1 75.97 0.0
06 21:55 W 17 16.09 Overcast OVC075 4 -2 65% 1 75.95 0.0
06 21:35 W 17 16.09 Overcast OVC075 4 -1 70% 1 75.95 0.0
06 21:15 W 13 16.09 Overcast OVC075 4 -1 70% 1 75.95 0.0
06 20:55 W 11 16.09 Overcast OVC075 4 -2 65% 2 75.95 0.0
06 20:35 W 11 16.09 Overcast OVC075 4 -2 65% 2 75.95 0.0
06 20:15 W 11 16.09 Overcast FEW055 OVC065 4 -2 65% 2 75.92 0.0
06 19:56 W 13 16.09 Overcast BKN060 OVC075 4 -2 65% 1 75.92 0.0
06 19:35 SW 13 16.09 Overcast OVC060 4 -3 61% 1 75.92 0.0
06 19:15 W 15 16.09 Overcast OVC060 4 -3 61% 1 75.92 0.0
06 18:55 W 17 16.09 Overcast OVC060 4 -3 61% 1 75.92 0.0
06 18:35 W 15 16.09 Overcast OVC060 4 -4 56% 1 75.92 0.0
06 18:15 W 15 16.09 Overcast OVC060 4 -4 56% 1 75.92 0.0
06 17:55 SW 22 G 30 16.09 Overcast OVC060 5 -4 53% 1 75.92 0.0
06 17:36 W 17 16.09 Overcast OVC060 5 -5 49% 2 75.92 0.0
06 17:15 W 20 16.09 Overcast OVC060 5 -4 53% 1 75.9 0.0
06 16:55 W 20 16.09 Overcast OVC060 5 -5 49% 1 75.92 0.0
06 16:35 W 20 16.09 Overcast FEW048 OVC060 5 -5 49% 1 75.92 0.0
06 16:15 W 22 16.09 Overcast BKN048 OVC060 5 -5 49% 1 75.92 0.0
06 15:55 W 20 16.09 Overcast OVC048 5 -4 53% 1 75.92 0.0
06 15:35 W 20 G 33 16.09 Overcast OVC050 5 -5 49% 1 75.92 0.0
06 15:16 W 26 16.09 Overcast FEW041 OVC050 6 -4 49% 2 75.9 0.0
06 14:56 W 24 G 35 16.09 Overcast SCT043 OVC050 5 -5 49% 1 75.9 0.0
06 14:35 W 20 G 35 16.09 Overcast SCT041 SCT047 OVC050 5 -5 49% 1 75.9 0.0
06 14:15 W 20 16.09 Overcast SCT039 SCT045 OVC050 6 -4 49% 3 75.9 0.0
06 13:55 W 24 16.09 Overcast FEW041 OVC050 6 -5 6 2.7 46% 2 75.9 0.0
06 13:35 W 30 16.09 Overcast FEW036 OVC048 5 -5 49% 0 75.92 0.0
06 13:15 W 22 G 30 16.09 Overcast OVC050 5 -4 53% 1 75.92 0.0
06 12:56 W 15 G 28 16.09 Overcast OVC050 5 -4 53% 2 75.92 0.0
06 12:36 W 20 G 30 16.09 Overcast OVC050 5 -4 53% 1 75.92 0.0
06 12:15 W 24 G 35 16.09 Overcast FEW037 OVC050 5 -4 53% 1 75.92 0.0
06 11:55 W 30 16.09 Mostly Cloudy SCT042 BKN050 6 -4 49% 2 75.9 0.0
06 11:35 W 31 16.09 Mostly Cloudy SCT042 BKN048 BKN055 6 -4 49% 2 75.9 0.0
06 11:15 W 26 16.09 Overcast FEW042 OVC055 5 -5 49% 1 75.9 0.0
06 10:55 W 24 16.09 Overcast OVC055 5 -4 53% 1 75.87 0.0
06 10:35 W 17 16.09 Overcast OVC055 5 -2 61% 2 75.87 0.0
06 10:16 W 22 16.09 Overcast OVC055 4 -3 61% -0 75.87 0.0
06 09:55 W 24 16.09 Overcast OVC055 4 -3 61% -0 75.87 0.0
06 09:35 W 26 16.09 Overcast OVC055 4 -3 61% -0 75.87 0.0
06 09:15 W 30 16.09 Overcast OVC055 4 -3 61% -1 75.87 0.0
06 08:55 W 22 16.09 Overcast OVC049 4 -3 61% -0 75.84 0.0
06 08:35 W 24 16.09 Overcast OVC049 3 -3 65% -2 75.84 0.0
06 08:15 W 13 16.09 Overcast OVC049 3 -2 70% 0 75.82 0.0
06 07:56 W 15 16.09 Overcast OVC049 3 -2 70% -0 75.82 0.0
06 07:35 W 15 16.09 Overcast OVC049 2 -3 70% -2 75.79 0.0
06 07:15 W 7 16.09 Overcast OVC049 2 -2 75% 0 75.79 0.0
06 06:55 W 11 16.09 Overcast OVC049 2 -3 70% -1 75.77 0.0
06 06:35 W 11 16.09 Overcast OVC047 1 -3 75% -2 75.77 0.0
06 06:15 W 11 16.09 Mostly Cloudy BKN047 1 -3 75% -2 75.77 0.0
06 05:55 W 15 16.09 Partly Cloudy SCT047 1 -3 75% -3 75.74 0.0
06 05:36 W 15 16.09 Partly Cloudy SCT047 1 -3 75% -3 75.77 0.0
06 05:15 W 15 16.09 Overcast OVC049 1 -3 75% -3 75.77 0.0
06 04:55 W 11 16.09 Overcast OVC049 1 -3 75% -2 75.77 0.0
06 04:35 W 9 16.09 Mostly Cloudy BKN049 1 -3 75% -2 75.77 0.0
06 04:15 W 11 16.09 Fair CLR 1 -4 70% -2 75.77 0.0
06 03:55 W 9 16.09 A Few Clouds FEW060 1 -4 70% -2 75.77 0.0
06 03:35 W 9 16.09 A Few Clouds FEW060 1 -4 70% -2 75.77 0.0
06 03:16 W 11 16.09 Mostly Cloudy BKN060 1 -4 70% -2 75.79 0.0
06 02:55 NW 15 16.09 Overcast OVC070 1 -4 70% -3 75.79 0.0
06 02:35 W 15 16.09 Overcast OVC070 1 -5 65% -3 75.79 0.0
06 02:15 W 13 16.09 Overcast OVC070 2 -5 60% -1 75.79 0.0
06 01:55 W 13 16.09 Overcast OVC070 2 -5 4.3 1.5 60% -1 75.79 0.0
06 01:35 W 11 16.09 Overcast OVC070 2 -5 60% -1 75.79 0.0
06 01:15 NW 7 16.09 Overcast OVC060 2 -5 60% 0 75.79 0.0
06 00:56 NW 7 16.09 Overcast OVC060 2 -4 65% 0 75.79 0.0
06 00:35 NW 7 16.09 Overcast OVC060 2 -4 65% 0 75.77 0.0
06 00:15 NW 15 16.09 Overcast OVC060 2 -4 65% -2 75.74 0.0
05 23:55 NW 15 16.09 Overcast OVC060 2 -4 65% -2 75.74 0.0
05 23:35 NW 15 16.09 Overcast FEW045 OVC060 2 -5 60% -2 75.74 0.0
05 23:15 NW 17 G 28 16.09 Overcast SCT043 BKN050 OVC060 2 -4 65% -2 75.74 0.0
05 22:55 N 17 16.09 Overcast BKN039 OVC050 3 -4 60% -1 75.74 0.0
05 22:36 N 13 16.09 Overcast OVC039 3 -3 65% 0 75.72 0.0
05 22:15 N 11 G 28 16.09 Overcast OVC037 3 -3 65% 0 75.72 0.0
05 21:55 N 20 16.09 Overcast BKN037 OVC070 3 -3 65% -1 75.69 0.0
05 21:35 N 17 16.09 Overcast BKN037 OVC070 3 -3 65% -1 75.67 0.0
05 21:15 N 19 G 26 16.09 Overcast SCT035 OVC070 3 -1 75% -1 75.67 0.0
05 20:55 N 15 16.09 Overcast SCT035 OVC070 3 -1 75% -0 75.64 0.0
05 20:35 N 19 16.09 Overcast OVC035 3 -1 75% -1 75.64 0.0
05 20:16 N 19 16.09 Overcast OVC033 4 -1 70% 0 75.64 0.0
05 19:55 N 15 16.09 Overcast BKN030 OVC039 4 -1 9.1 4 70% 1 75.62 0.0
05 19:35 NE 15 16.09 Overcast SCT028 OVC039 4 0 75% 1 75.62 0.0
05 19:15 NE 17 16.09 Overcast OVC028 4 0 75% 1 75.59 0.0
05 18:55 NE 15 16.09 Mostly Cloudy BKN026 BKN033 4 0 75% 1 75.59 0.0
05 18:35 N 17 G 30 16.09 Fair CLR 5 1 76% 2 75.57 0.0
05 18:15 N 24 16.09 Fair CLR 6 1 71% 2 75.57 0.0
05 17:56 NE 22 16.09 Fair CLR 6 1 71% 2 75.54 0.0
05 17:35 NW 13 16.09 Partly Cloudy SCT075 8 -1 53% 6 75.51 0.0
05 17:15 NW 17 G 28 16.09 Mostly Cloudy BKN075 9 0 54% 7 75.51 0.0
05 16:55 W 19 16.09 A Few Clouds FEW065 8 0 57% 5 75.49 0.0
05 16:35 W 26 G 37 16.09 A Few Clouds FEW065 8 -2 50% 5 75.46 0.0
05 16:15 W 24 G 39 16.09 Fair CLR 8 -2 50% 5 75.49 0.0
05 15:55 W 26 G 39 16.09 Partly Cloudy SCT075 8 -2 50% 5 75.46 0.0
05 15:36 SW 24 G 37 16.09 Partly Cloudy SCT075 8 -1 53% 5 75.46 0.0
05 15:15 SW 19 G 39 16.09 A Few Clouds FEW085 8 -1 53% 5 75.44 0.0
05 14:55 SW 20 G 37 16.09 A Few Clouds FEW085 8 -1 53% 5 75.44 0.0
05 14:35 W 22 G 35 16.09 Fair CLR 8 -1 53% 5 75.41 0.0
05 14:15 W 20 G 30 16.09 Fair CLR 8 0 57% 5 75.41 0.0
05 13:55 SW 22 G 35 16.09 A Few Clouds FEW085 7 -1 8.1 3.8 57% 4 75.41 0.0
05 13:35 SW 26 G 33 16.09 A Few Clouds FEW085 8 -1 53% 5 75.39 0.0
05 13:16 SW 22 G 31 16.09 Fair CLR 7 0 61% 4 75.39 0.0
05 12:55 SW 19 G 35 16.09 Fair CLR 7 -1 57% 4 75.39 0.0
05 12:35 SW 15 G 28 16.09 Fair CLR 7 0 61% 5 75.39 0.0
05 12:15 SW 22 16.09 Mostly Cloudy FEW060 BKN075 7 0 61% 4 75.39 0.0
05 11:55 SW 24 G 30 16.09 Overcast OVC075 6 -1 61% 2 75.39 0.0
05 11:35 W 17 G 37 16.09 Mostly Cloudy BKN075 6 -1 61% 3 75.39 0.0
05 11:15 SW 20 G 33 16.09 Partly Cloudy SCT075 6 0 66% 3 75.36 0.0
05 10:56 SW 24 G 35 16.09 Fair CLR 5 0 70% 1 75.34 0.0
05 10:35 SW 19 G 28 16.09 Mostly Cloudy BKN070 5 -1 66% 2 75.31 0.0
05 10:15 SW 20 G 31 16.09 Overcast OVC070 4 -1 70% 0 75.29 0.0
05 09:55 W 20 G 33 16.09 Overcast OVC070 5 -2 61% 1 75.29 0.0
05 09:35 W 30 16.09 Overcast OVC070 5 -2 61% 0 75.23 0.0
05 09:15 W 17 16.09 Partly Cloudy SCT070 6 -2 57% 3 75.23 0.0
05 08:55 NW 19 16.09 Fair CLR 5 -3 57% 2 75.23 0.0
05 08:36 W 19 16.09 Fair CLR 4 -3 61% 0 75.23 0.0
05 08:15 NW 13 16.09 Fair CLR 4 -2 65% 1 75.21 0.0
05 07:55 NW 19 G 26 16.09 Fair CLR 4 -2 7.3 3.3 65% 0 75.18 0.0
05 07:35 W 17 16.09 A Few Clouds FEW075 4 -2 65% 1 75.18 0.0
05 07:15 W 15 16.09 Partly Cloudy SCT075 4 -2 65% 1 75.18 0.0
05 06:55 W 11 16.09 Overcast OVC075 4 -2 65% 2 75.13 0.0
05 06:35 W 13 16.09 Overcast OVC075 4 -2 65% 1 75.11 0.0
05 06:16 W 13 16.09 Overcast OVC075 3 -1 75% 0 75.11 0.0
05 05:55 NW 9 16.09 Mostly Cloudy BKN075 3 -1 75% 1 75.08 0.0
05 05:35 W 17 G 26 16.09 A Few Clouds FEW075 4 -1 70% 1 75.06 0.0
05 05:15 W 19 16.09 Fair CLR 4 -1 70% 0 75.06 0.0
05 04:55 W 15 16.09 Fair CLR 5 -1 66% 2 75.06 0.0
05 04:35 NW 17 16.09 Mostly Cloudy BKN070 5 -1 66% 2 75.03 0.0
05 03:56 NW 19 G 31 16.09 Mostly Cloudy BKN070 6 -1 61% 3 75.01 0.0
05 03:35 W 19 16.09 Mostly Cloudy BKN070 BKN095 6 -1 61% 3 75.01 0.0
05 03:15 NW 24 G 31 16.09 Overcast OVC070 6 -1 61% 2 74.98 0.0
05 02:55 NW 20 G 43 16.09 Overcast OVC070 7 -1 57% 4 74.98 0.0
05 02:35 NW 24 G 35 16.09 Overcast OVC060 7 -1 57% 4 74.98 0.0
05 02:15 NW 19 G 28 16.09 Overcast OVC060 7 -1 57% 4 74.98 0.0
05 01:55 W 19 G 31 16.09 Overcast OVC060 7 -1 9.5 7.2 57% 4 74.96 0.0
05 01:36 NW 19 G 30 16.09 Overcast OVC060 7 -1 57% 4 74.96 0.0
05 01:15 NW 19 G 26 16.09 Overcast OVC060 7 -1 57% 4 74.93 0.0
05 00:55 NW 17 G 28 16.09 Overcast OVC060 7 -1 57% 4 74.9 0.0
05 00:35 NW 17 G 28 16.09 Overcast OVC060 7 0 61% 4 74.9 0.0
05 00:15 NW 15 G 26 16.09 Overcast OVC060 8 0 57% 6 74.9 0.0
04 23:55 NW 15 16.09 Overcast OVC060 8 1 62% 6 74.9 0.0
04 23:35 N 15 16.09 Overcast OVC060 8 1 62% 6 74.88 0.0
04 23:16 N 17 16.09 Overcast OVC060 8 1 62% 6 74.88 0.0
04 22:55 N 13 16.09 Overcast BKN050 OVC120 8 2 66% 6 74.85 0.0
04 22:35 N 13 16.09 Overcast BKN050 BKN070 OVC120 8 2 66% 6 74.83 0.0
04 22:15 N 13 16.09 Overcast BKN050 OVC070 8 2 66% 6 74.83 0.0
04 21:55 N 15 16.09 Overcast OVC050 8 2 66% 6 74.83 0.0
04 21:35 N 17 G 26 16.09 Overcast BKN046 BKN055 OVC085 8 2 66% 6 74.8 0.0
04 21:15 N 17 16.09 Overcast FEW047 SCT075 OVC085 8 2 66% 6 74.78 0.0
04 20:56 N 20 G 28 16.09 Overcast OVC075 9 4 71% 6 74.75 0.0
04 20:35 N 15 16.09 Light Rain BKN060 OVC070 8 5 82% 6 74.75 0.0
04 20:15 N 15 16.09 Light Rain OVC070 9 5 76% 7 74.73 0.0
04 19:55 N 17 16.09 Light Rain OVC080 9 5 19.5 9.5 76% 7 74.68 0.0
04 19:35 N 19 16.09 Mostly Cloudy BKN075 10 5 71% 8 74.68 0.0
04 19:15 N 20 16.09 Light Rain FEW038 BKN075 BKN095 10 6 76% 8 74.63 0.0
Date Time (edt) Wind (kph) Vis. (km) Weather Sky Cond. Air Dwpt Max. Min. Relative Humidity Wind Chill (°C) Heat Index (°C) altimeter (cm) sea level (mb) 1 hr 3 hr 6 hr
6 hour
Temperature (ºC) Pressure Precipitation (cm)